Location: *
(46.1866°S, 178.5290°W)
Time: 11:50:09
(UTC+00:00)

Cosmos 967 Rocket - Pass Details

Date: 19 May 2021
Orbit: 953 x 985 km, 65.8° (Epoch: 13 June)

Event Time Altitude Azimuth Distance (km) Brightness Sun altitude
Rises 05:03:38 0° 215° (SW) 3,710 7.7 -6.4°
Reaches altitude 10° 05:06:14 10° 213° (SSW) 2,753 7.0 -6.9°
Maximum altitude 05:12:42 77° 126° (SE) 1,006 4.5 -7.9°
Drops below altitude 10° 05:19:03 10° 39° (NE) 2,703 6.6 -8.9°
Sets 05:21:35 0° 38° (NE) 3,639 7.3 -9.3°
